{"data":{"norad_id":54195,"intl_designator":"2022-141AQ","name":"STARLINK-5258","alt_names":[],"object_type":"PAYLOAD","status":"ACTIVE","operator":null,"country":"US","launch_date":"2022-10-28","launch_site_code":"AFWTR","launch_vehicle":null,"mission":null,"orbit_class":"UNKNOWN","rcs_meters":null,"size_class":null,"mass_kg":null,"dimensions":null,"purposes":["comms"],"wikipedia_slug":null,"has_3d_model":false,"image_url":null,"decayed_at":null,"tle_current":{"epoch":"2026-05-25T01:03:17.596224Z","epoch_age_seconds":72025,"freshness":"FRESH","line1":"1 54195U 22141AQ  26145.04395366  .00000128  00000+0  26159-4 0  9995","line2":"2 54195  53.2144  11.4324 0001470  77.3561 282.7596 15.08841338197525","mean_motion":15.08841338,"eccentricity":0.000147,"inclination_deg":53.2144,"raan_deg":11.4324,"arg_perigee_deg":77.3561,"mean_anomaly_deg":282.7596,"bstar":2.6159e-5,"rev_number":19752,"period_min":95.437470046304,"perigee_km":538.72237142041,"apogee_km":540.75622705239,"semimajor_km":6917.8762992364,"source":"CELESTRAK","updated_at":"2026-05-25T13:38:17.684416Z"}}}